Tracking 30995 objects as of 5-Jul-2025
HD Live streaming from Space Station
objects crossing your sky now

STARLINK-5951

Track STARLINK-5951 now!
10-day predictions
STARLINK-5951 is classified as:


NORAD ID: 56918
Int'l Code: 2023-083AU
Perigee: 565.0 km
Apogee: 567.4 km
Inclination: 43.0 °
Period: 95.8 minutes
Semi major axis: 6937 km
RCS: Unknown
Launch date: June 12, 2023
Source: United States (US)
Launch site: AIR FORCE EASTERN TEST RANGE (AFETR)
Your satellite tracking list
CUBESX-SIRIUS-HSE
Track 1 satellite(s)




NASA's NSSDC Master Catalog

Two Line Element Set (TLE):
1 56918U 23083AU  25185.87813721  .00000226  00000-0  31803-4 0  9992
2 56918  43.0058 335.2657 0001772 267.8220  92.2420 15.02536619114548
Source of the keplerian elements: AFSPC